This demonstration page uses our WeatherBlox Daily Observations layout. Learn more.

Left ArrowRight Arrow

Hourly Observations for September 25, 2020

Temp ( °F °C ) Dew Point ( °F °C ) Humidity (%) Winds ( mph kmh ) Pressure ( in mb ) Visibility ( mi km ) Precip ( " mm )
12:53 am 00:53 Clear 70 21.1 56 13.3 61 61 SE 6 9 29.86 1011 10 16 0.00 0.00
1:53 am 01:53 Clear 69 20.6 56 13.3 63 63 SSE 8 13 29.85 1011 10 16 0.00 0.00
2:53 am 02:53 Clear 66 18.9 56 13.3 70 70 ESE 6 9 29.85 1011 10 16 0.00 0.00
3:53 am 03:53 Clear 63 17.2 54 12.2 73 73 NE 3 6 29.85 1011 10 16 0.00 0.00
4:53 am 04:53 Clear 60 15.6 54 12.2 80 80 E 6 9 29.85 1011 10 16 0.00 0.00
5:53 am 05:53 Clear 60 15.6 55 12.8 84 84 ENE 5 7 29.85 1011 10 16 0.00 0.00
6:53 am 06:53 Clear 61 16.1 55 12.8 81 81 E 5 7 29.86 1011 10 16 0.00 0.00
7:53 am 07:53 Sunny 58 14.4 53 11.7 84 84 NE 3 6 29.88 1012 10 16 0.00 0.00
8:53 am 08:53 Sunny 62 16.7 54 12.2 75 75 Calm 29.90 1013 10 16 0.00 0.00
9:53 am 09:53 Sunny 71 21.7 57 13.9 61 61 ESE 8 13 29.90 1013 10 16 0.00 0.00
10:53 am 10:53 Sunny 77 25 55 12.8 47 47 ESE 7 11 29.90 1013 10 16 0.00 0.00
11:53 am 11:53 Sunny 84 28.9 53 11.7 34 34 SE 3 6 29.89 1012 10 16 0.00 0.00
12:53 pm 12:53 Sunny 89 31.7 47 8.3 23 23 VRB 3 6 29.86 1011 10 16 0.00 0.00
1:53 pm 13:53 Sunny 92 33.3 40 4.4 16 16 S 8 13 29.84 1010 10 16 0.00 0.00
2:53 pm 14:53 Sunny 93 33.9 33 0.6 12 12 VRB 7 11 29.80 1009 10 16 0.00 0.00
3:53 pm 15:53 Sunny 95 35 35 1.7 12 12 SSW 8 13 29.79 1009 10 16 0.00 0.00
4:53 pm 16:53 Sunny 96 35.6 35 1.7 12 12 SSW 8 13 29.77 1008 10 16 0.00 0.00
5:53 pm 17:53 Sunny 95 35 33 0.6 11 11 S 9 15 29.76 1008 10 16 0.00 0.00
6:53 pm 18:53 Sunny 93 33.9 33 0.6 12 12 SE 13 20 29.76 1008 10 16 0.00 0.00
7:53 pm 19:53 Clear 86 30 33 0.6 15 15 ESE 9 15 29.78 1009 10 16 0.00 0.00
8:53 pm 20:53 Clear 83 28.3 33 0.6 17 17 ESE 9 15 29.79 1009 10 16 0.00 0.00
9:53 pm 21:53 Clear 80 26.7 41 5 25 25 SE 13 20 29.80 1009 10 16 0.00 0.00
10:53 pm 22:53 Clear 77 25 48 8.9 36 36 SE 13 20 29.80 1009 10 16 0.00 0.00
11:53 pm 23:53 Clear 75 23.9 52 11.1 45 45 SE 12 19 29.80 1009 10 16 0.00 0.00

Powered by AerisWeather